CZ-6A DEB, 56644

Orbit data source: Space-Track

CZ-6A DEB, 56644 is space debris in SSO originally from a launch on Fri, 11 Nov 2022 UTC launched from the Taiyaun Space Center, China (TSC). Debris objects in space refer to the collection of defunct objects orbiting the Earth. Examples of debris include non-operational satellites, rocket bodies, and fragments generated from explosions, collisions, or faulty payload assembly.

Loading next visibility...
Identifier
56644, 2022-151AFU
Orbit
SSO
Country
Flag of CNCN / PRC
Related business
Manufacturer
SAST
Mission
Spacecraft
Bus & Motor
Unknown
Mass
Unknown
Launch date (UTC)
2022-11-11 (3 years ago)
Launch vehicle
Unknown
Launch site
Taiyaun Space Center, China (TSC)
Object type
Payload
Rocket body
Debris
Shape & HBR
Unknown shape, 0.1 m
Radar Cross Section
Small (<0.1 m²)

Expand to show TLE details & history
Last TLE update: 19 hours ago

TLE from 19 hours ago
0 CZ-6A DEB
1 56644U 22151AFU 25349.74093528  .00000215  00000-0  14219-3 0  9995
2 56644  98.8282 349.4130 0039829 120.7497 239.7606 14.11172065136763
Epoch: 2025-12-15T17:46Z
TLE epoch observation values (Epoch: 2025-12-15T17:46:56.808Z)
Latitude
-0°
Longitude
-1.95885°
Altitude
872.86 km
Speed
7.408 km/s
True Right ascension
23h 17m 39s
True Declination
0° 00' 00"
Sunlit
Object was in daylight at epoch
Visualization orbit readout
Latitude
Unknown
Longitude
Unknown
Altitude
Unknown
Speed
Unknown
Apparent Right ascension
Unknown
Apparent Declination
Unknown
Sunlit
N/A
Visualization observer readout
Local Sidereal Time
11:31:32
Azimuth
Unknown
Elevation
Unknown
Doppler factor
Unknown
Orbital elements
Apogee altitude
881.339 km
Perigee altitude
823.741 km
Semi-major axis
7,230.677 km
Eccentricity
0.00398
Inclination
98.8282°
RAAN
349.413°
Arg. of periapsis
120.7497°
True anomaly
239.36729°
Mean anomaly
239.7606°
Eccentric anomaly
239.56384°
Mean motion
3.53 °/min
Orbital period
101.98 mins
BSTAR
0.00014219
Loading maneuver chart data...
Computing Atmospheric mass density...
Loading historical data...
Loading historical data...
Loading historical data...
Loading historical data...
Loading historical data...
Loading historical data...
Loading historical data...

Documentation

Showing up to 5 results
|